Location: *
(46.4000°N, 12.6667°E)
Time: 11:13:45
(UTC+00:00)

Cosmos 2344 - Pass Details

Date: 09 April 2020
Orbit: 1251 x 2991 km, 63.3° (Epoch: 25 May)

Event Time Altitude Azimuth Distance (km) Brightness Sun altitude
Rises 22:24:52 0° 319° (NW) 4,705 7.4 -34.6°
Reaches altitude 10° 22:27:34 10° 317° (NW) 3,873 6.7 -34.7°
Maximum altitude 22:37:17 64° 239° (WSW) 2,192 4.5 -35.1°
Enters shadow 22:38:41 61° 209° (SSW) 2,306 4.5 -35.1°
